This is the latest recevied weather packets stored in our database for station/object WD4ITN. If no packets are shown the sender has not sent any weather packets the latest 10 day(s).
| Time | Temp. | Humidity | Pressure | Rain* | Wind** | Luminosity | Snow |
|---|---|---|---|---|---|---|---|
| 1777566500 | 11.67° C | 58% | 1009.8 hPa | 0 mm | - | - | - |
| 1777566198 | 12.22° C | 62% | 1009.8 hPa | 0 mm | - | - | - |
| 1777565916 | 11.67° C | 67% | 1009.9 hPa | 0 mm | - | - | - |
| 1777565610 | 11.67° C | 61% | 1009.8 hPa | 0 mm | - | - | - |
| 1777565309 | 11.11° C | 65% | 1010 hPa | 0 mm | - | - | - |
| 1777565006 | 11.11° C | 62% | 1009.9 hPa | 0 mm | - | - | - |
| 1777564698 | 11.11° C | 64% | 1009.9 hPa | 0 mm | - | - | - |
| 1777564400 | 11.11° C | 67% | 1010 hPa | 0 mm | - | - | - |
| 1777564094 | 10.56° C | 64% | 1010 hPa | 0 mm | - | - | - |
| 1777563811 | 10.56° C | 64% | 1010.1 hPa | 0 mm | - | - | - |
| 1777563507 | 10.56° C | 66% | 1010.1 hPa | 0 mm | - | - | - |
| 1777563211 | 10.56° C | 64% | 1010.1 hPa | 0 mm | - | - | - |
| 1777562900 | 10.56° C | 63% | 1009.9 hPa | 0 mm | - | - | - |
| 1777562605 | 11.11° C | 67% | 1009.9 hPa | 0 mm | - | - | - |
| 1777562300 | 10.56° C | 64% | 1010 hPa | 0 mm | - | - | - |
| 1777561998 | 11.11° C | 65% | 1009.9 hPa | 0 mm | - | - | - |
| 1777561698 | 11.67° C | 63% | 1009.9 hPa | 0 mm | - | - | - |
| 1777561421 | 11.67° C | 70% | 1009.8 hPa | 0 mm | - | - | - |
| 1777561109 | 11.11° C | 66% | 1010 hPa | 0 mm | - | - | - |
| 1777560814 | 11.11° C | 67% | 1010 hPa | 0 mm | - | - | - |
| 1777560506 | 11.11° C | 65% | 1009.9 hPa | 0 mm | - | - | - |
| 1777560203 | 11.11° C | 69% | 1009.9 hPa | 0 mm | - | - | - |
| 1777559901 | 10.56° C | 69% | 1009.7 hPa | 0 mm | - | - | - |
| 1777559597 | 10.56° C | 69% | 1009.7 hPa | 0 mm | - | - | - |
| 1777559294 | 10° C | 70% | 1009.5 hPa | 0 mm | - | - | - |
* Rain since midnight (hover to see other rain measurements)
** Current wind speed in m/s (hover to see current wind gust speed)